Tracking 31027 objects as of 19-Jul-2025
HD Live streaming from Space Station
objects crossing your sky now

CZ-3C DEB

Track CZ-3C DEB now!


NORAD ID: 40868
Int'l Code: 2012-008AJ
Perigee: 1,407.6 km
Apogee: 34,606.7 km
Inclination: 22.2 °
Period: 631.3 minutes
Semi major axis: 24378 km
RCS: Unknown
Launch date: February 24, 2012
Source: People's Republic of China (PRC)
Launch site: Xichang Space Center, China (XSC)

Note: This is SATELLITE DEBRIS
Your satellite tracking list
FLOCK 3P 17
Track 1 satellite(s)




NASA's NSSDC Master Catalog

Two Line Element Set (TLE):
1 40868U 12008AJ  25195.63235156 -.00000159  00000-0  00000-0 0  9996
2 40868  22.2335   9.0388 6809211 265.2660  20.5417  2.28087702988344
Source of the keplerian elements: AFSPC